ARIANE 2 DEB, 27650

Orbit data source: Space-Track

ARIANE 2 DEB, 27650 is space debris in HEO originally from a launch on Fri, 27 Jan 1989 UTC launched from the French Guiana (FRGUI). Debris objects in space refer to the collection of defunct objects orbiting the Earth. Examples of debris include non-operational satellites, rocket bodies, and fragments generated from explosions, collisions, or faulty payload assembly.

Loading next visibility...
Identifier
27650, 1989-006AE
Orbit
HEO
Country
Flag of FRFR
Related business
Manufacturer
EADS/LV
Mission
Spacecraft
Bus & Motor
Unknown
Mass
Unknown
Launch date (UTC)
1989-01-27 (37 years ago)
Launch vehicle
Unknown
Launch site
French Guiana (FRGUI)
Object type
Payload
Rocket body
Debris
Shape & HBR
Unknown shape, 0.3 m
Radar Cross Section
Medium (>0.1 m² and <1 m²)

Expand to show TLE details & history
Last TLE update: 18 hours ago

TLE from 18 hours ago
0 ARIANE 2 DEB
1 27650U 89006AE  26095.02805979  .00000170  00000-0  44453-3 0  9996
2 27650   8.3634 287.6149 7186375   8.7951 359.0301  2.33339817206413
Epoch: 2026-04-05T00:40Z
TLE epoch observation values (Epoch: 2026-04-05T00:40:24.365Z)
Latitude
0.00045°
Longitude
84.12034°
Altitude
434.807 km
Speed
10.02 km/s
True Right ascension
19h 10m 14s
True Declination
0° 00' 02"
Sunlit
Object was in daylight at epoch
Visualization orbit readout
Latitude
Unknown
Longitude
Unknown
Altitude
Unknown
Speed
Unknown
Apparent Right ascension
Unknown
Apparent Declination
Unknown
Sunlit
N/A
Visualization observer readout
Local Sidereal Time
00:39:24
Azimuth
Unknown
Elevation
Unknown
Doppler factor
Unknown
Orbital elements
Apogee altitude
34,897.079 km
Perigee altitude
379.133 km
Semi-major axis
24,016.243 km
Eccentricity
0.71864
Inclination
8.3634°
RAAN
287.6149°
Arg. of periapsis
8.7951°
True anomaly
351.50648°
Mean anomaly
359.0301°
Eccentric anomaly
356.55813°
Mean motion
0.58316 °/min
Orbital period
617.33 mins
BSTAR
0.00044453
Loading maneuver chart data...
Computing Atmospheric mass density...
Loading historical data...
Loading historical data...
Loading historical data...
Loading historical data...
Loading historical data...
Loading historical data...
Loading historical data...

Documentation

Showing up to 5 results
|